Location: Unspecified
(0.0000°N, 0.0000°E)
Time: 00:17:46
(UTC+00:00)

STRELA 3 - Pass Details

Date: 19 May 2026
Orbit: 1496 x 1510 km, 82.5° (Epoch: 10 June)

Event Time Altitude Azimuth Distance (km) Brightness Sun altitude
Rises 01:44:07 0° 12° (NNE) 4,614 10.7 -57.1°
Reaches altitude 10° 01:47:13 10° 19° (NNE) 3,636 10.0 -56.5°
Enters shadow 01:49:09 18° 26° (NNE) 3,065 9.6 -56.1°
